When you browse on this site, cookies collect data to enhance your experience and personalize the content and advertising you see.
Visit our Privacy Policy to learn more. By continuing to use the site, you agree to this use of cookies and data.
  • Em Portugal
  • Lista de países
  • Para 7 dias
  • Temperatura da água
  • Mapas de satélite
  • Mapa do tempo
  • Widgets de tempo
  • user-avatar
    Iniciar Sessão

    Previsão horária em Szczytno

    Hoje, 19 Fevereiro, Terça-feira

    Tempo Temperatura Precipitação Vento Pressão Humidade
    00:00 +3°C° 0 mm 2 m/s 748 mmHg 85%
    01:00 +3°C° 0 mm 2 m/s 748 mmHg 87%
    02:00 +3°C° 0 mm 2 m/s 747 mmHg 87%
    03:00 +3°C° 0 mm 2 m/s 747 mmHg 87%
    04:00 +2°C° 0 mm 3 m/s 746 mmHg 87%
    05:00 +2°C° 0 mm 3 m/s 746 mmHg 87%
    06:00 +2°C° 0 mm 3 m/s 746 mmHg 86%
    07:00 +2°C° 0 mm 3 m/s 745 mmHg 86%
    08:00 +3°C° 0 mm 4 m/s 745 mmHg 84%
    09:00 +4°C° 0 mm 4 m/s 745 mmHg 81%
    10:00 +5°C° 0 mm 5 m/s 745 mmHg 78%
    11:00 +6°C° 0 mm 5 m/s 745 mmHg 76%
    12:00 +7°C° 0 mm 5 m/s 745 mmHg 74%
    13:00 +8°C° 0 mm 5 m/s 745 mmHg 71%
    14:00 +7°C° 0.3 mm 5 m/s 745 mmHg 75%
    15:00 +7°C° 0.3 mm 5 m/s 745 mmHg 78%
    16:00 +6°C° 0.3 mm 5 m/s 745 mmHg 81%
    17:00 +6°C° 0 mm 4 m/s 745 mmHg 81%
    18:00 +5°C° 0 mm 4 m/s 745 mmHg 80%
    19:00 +5°C° 0 mm 4 m/s 745 mmHg 80%
    20:00 +5°C° 0.1 mm 5 m/s 745 mmHg 81%
    21:00 +5°C° 0.1 mm 5 m/s 745 mmHg 81%
    22:00 +5°C° 0.1 mm 5 m/s 745 mmHg 82%
    23:00 +3°C° 0.1 mm 5 m/s 745 mmHg 82%

    Amanhã, 20 Fevereiro, Quarta-feira

    Tempo Temperatura Precipitação Vento Pressão Humidade
    00:00 +3°C° 0.1 mm 6 m/s 745 mmHg 82%
    01:00 +3°C° 0.1 mm 6 m/s 746 mmHg 82%
    02:00 +3°C° 0.1 mm 6 m/s 746 mmHg 82%
    03:00 +2°C° 0.1 mm 6 m/s 746 mmHg 81%
    04:00 +2°C° 0.1 mm 6 m/s 746 mmHg 81%
    05:00 +2°C° 0.1 mm 6 m/s 746 mmHg 81%
    06:00 +2°C° 0.1 mm 6 m/s 746 mmHg 80%
    07:00 +2°C° 0.1 mm 6 m/s 747 mmHg 80%
    08:00 +2°C° 0.1 mm 6 m/s 747 mmHg 79%
    09:00 +2°C° 0.1 mm 6 m/s 747 mmHg 77%
    10:00 +2°C° 0.1 mm 6 m/s 748 mmHg 76%
    11:00 +3°C° 0 mm 6 m/s 748 mmHg 75%
    12:00 +3°C° 0 mm 6 m/s 749 mmHg 74%
    13:00 +3°C° 0 mm 6 m/s 749 mmHg 73%
    14:00 +3°C° 0 mm 6 m/s 750 mmHg 73%
    15:00 +3°C° 0 mm 6 m/s 750 mmHg 73%
    16:00 +3°C° 0 mm 5 m/s 750 mmHg 74%
    17:00 +3°C° 0 mm 5 m/s 751 mmHg 77%
    18:00 +4°C° 0 mm 4 m/s 751 mmHg 81%
    19:00 +3°C° 0 mm 4 m/s 751 mmHg 85%
    20:00 +3°C° 0 mm 3 m/s 752 mmHg 87%
    21:00 +2°C° 0 mm 3 m/s 752 mmHg 90%
    22:00 +3°C° 0 mm 2 m/s 752 mmHg 93%
    23:00 +3°C° 0.2 mm 2 m/s 752 mmHg 93%

    Depois de amanhã, 21 Fevereiro, Quinta-feira

    Tempo Temperatura Precipitação Vento Pressão Humidade
    00:00 +4°C° 0.2 mm 2 m/s 752 mmHg 94%
    01:00 +4°C° 0.2 mm 2 m/s 752 mmHg 95%
    02:00 +4°C° 0.2 mm 2 m/s 751 mmHg 95%
    03:00 +3°C° 0.2 mm 3 m/s 751 mmHg 95%
    04:00 +4°C° 0.2 mm 3 m/s 751 mmHg 95%
    05:00 +4°C° 0.7 mm 3 m/s 751 mmHg 94%
    06:00 +4°C° 0.7 mm 3 m/s 751 mmHg 94%
    07:00 +4°C° 0.7 mm 4 m/s 751 mmHg 94%
    08:00 +4°C° 0.2 mm 4 m/s 750 mmHg 93%
    09:00 +5°C° 0.2 mm 4 m/s 750 mmHg 92%
    10:00 +5°C° 0.2 mm 4 m/s 750 mmHg 90%
    11:00 +5°C° 0.5 mm 4 m/s 750 mmHg 90%
    12:00 +5°C° 0.5 mm 4 m/s 750 mmHg 89%
    13:00 +5°C° 0.5 mm 4 m/s 750 mmHg 89%
    14:00 +5°C° 0.2 mm 4 m/s 750 mmHg 90%
    15:00 +5°C° 0.2 mm 4 m/s 750 mmHg 90%
    16:00 +5°C° 0.2 mm 4 m/s 750 mmHg 91%
    17:00 +5°C° 0.2 mm 5 m/s 750 mmHg 91%
    18:00 +5°C° 0.2 mm 5 m/s 751 mmHg 91%
    19:00 +5°C° 0.2 mm 5 m/s 751 mmHg 91%
    20:00 +5°C° 0.3 mm 5 m/s 752 mmHg 91%
    21:00 +5°C° 0.3 mm 5 m/s 752 mmHg 90%
    22:00 +4°C° 0.3 mm 4 m/s 753 mmHg 90%
    23:00 +3°C° 0 mm 4 m/s 754 mmHg 87%

    22 Fevereiro, Sexta-feira

    Tempo Temperatura Precipitação Vento Pressão Humidade
    00:00 +1°C° 0 mm 4 m/s 755 mmHg 85%
    01:00 -1°C° 0 mm 4 m/s 756 mmHg 82%
    02:00 -1°C° 0 mm 4 m/s 757 mmHg 80%
    03:00 -1°C° 0 mm 4 m/s 757 mmHg 78%
    04:00 -2°C° 0 mm 4 m/s 758 mmHg 76%
    05:00 -2°C° 0 mm 4 m/s 759 mmHg 75%
    06:00 -2°C° 0 mm 3 m/s 760 mmHg 75%
    07:00 -2°C° 0 mm 3 m/s 761 mmHg 74%
    08:00 -2°C° 0 mm 3 m/s 762 mmHg 70%
    09:00 -1°C° 0 mm 3 m/s 763 mmHg 66%
    10:00 -1°C° 0 mm 3 m/s 764 mmHg 61%
    11:00 0°C° 0 mm 3 m/s 764 mmHg 58%
    12:00 0°C° 0 mm 3 m/s 765 mmHg 55%
    13:00 +1°C° 0 mm 3 m/s 765 mmHg 52%
    14:00 +2°C° 0 mm 2 m/s 765 mmHg 52%
    15:00 +2°C° 0 mm 2 m/s 766 mmHg 52%
    16:00 +2°C° 0 mm 2 m/s 766 mmHg 52%
    17:00 +1°C° 0 mm 2 m/s 766 mmHg 57%
    18:00 -1°C° 0 mm 2 m/s 766 mmHg 62%
    19:00 0°C° 0 mm 1 m/s 767 mmHg 67%
    20:00 -1°C° 0 mm 1 m/s 767 mmHg 67%
    21:00 -1°C° 0 mm 1 m/s 767 mmHg 66%
    22:00 -1°C° 0 mm 1 m/s 767 mmHg 66%
    23:00 -1°C° 0 mm 1 m/s 767 mmHg 65%

    23 Fevereiro, Sábado

    Tempo Temperatura Precipitação Vento Pressão Humidade
    00:00 -2°C° 0 mm 0 m/s 767 mmHg 64%
    01:00 -2°C° 0 mm 0 m/s 767 mmHg 63%
    02:00 -2°C° 0 mm 0 m/s 767 mmHg 63%
    03:00 -2°C° 0 mm 0 m/s 767 mmHg 63%
    04:00 -2°C° 0 mm 0 m/s 767 mmHg 62%
    05:00 -2°C° 0 mm 0 m/s 767 mmHg 62%
    06:00 -2°C° 0 mm 0 m/s 766 mmHg 62%
    07:00 -2°C° 0 mm 0 m/s 766 mmHg 62%
    08:00 0°C° 0 mm 1 m/s 766 mmHg 58%
    09:00 +1°C° 0 mm 1 m/s 766 mmHg 54%
    10:00 +2°C° 0 mm 1 m/s 767 mmHg 51%
    11:00 +2°C° 0 mm 2 m/s 766 mmHg 49%
    12:00 +3°C° 0 mm 2 m/s 766 mmHg 48%
    13:00 +3°C° 0 mm 2 m/s 766 mmHg 47%
    14:00 +3°C° 0 mm 2 m/s 765 mmHg 51%
    15:00 +3°C° 0 mm 2 m/s 765 mmHg 55%
    16:00 +2°C° 0 mm 2 m/s 764 mmHg 59%
    17:00 +2°C° 0 mm 2 m/s 764 mmHg 62%
    18:00 +1°C° 0 mm 2 m/s 764 mmHg 66%
    19:00 +2°C° 0 mm 1 m/s 764 mmHg 70%
    20:00 +2°C° 0 mm 1 m/s 764 mmHg 74%
    21:00 +2°C° 0 mm 1 m/s 764 mmHg 79%
    22:00 +2°C° 0 mm 1 m/s 764 mmHg 84%
    23:00 +2°C° 0 mm 1 m/s 764 mmHg 86%

    24 Fevereiro, Domingo

    Tempo Temperatura Precipitação Vento Pressão Humidade
    00:00 +2°C° 0 mm 1 m/s 764 mmHg 88%
    01:00 +1°C° 0 mm 0 m/s 764 mmHg 91%
    02:00 +1°C° 0 mm 0 m/s 764 mmHg 92%
    03:00 +1°C° 0 mm 0 m/s 764 mmHg 93%
    04:00 +1°C° 0 mm 0 m/s 764 mmHg 94%
    05:00 +1°C° 0 mm 0 m/s 764 mmHg 94%
    06:00 +1°C° 0 mm 0 m/s 764 mmHg 94%
    07:00 +2°C° 0 mm 1 m/s 764 mmHg 94%
    08:00 +3°C° 0 mm 1 m/s 765 mmHg 92%
    09:00 +4°C° 0 mm 1 m/s 765 mmHg 90%
    10:00 +4°C° 0 mm 1 m/s 765 mmHg 87%
    11:00 +5°C° 0 mm 1 m/s 765 mmHg 85%
    12:00 +6°C° 0 mm 1 m/s 765 mmHg 82%
    13:00 +6°C° 0 mm 2 m/s 766 mmHg 79%
    14:00 +6°C° 0 mm 2 m/s 765 mmHg 80%
    15:00 +6°C° 0 mm 2 m/s 765 mmHg 81%
    16:00 +6°C° 0 mm 2 m/s 765 mmHg 82%
    17:00 +5°C° 0 mm 2 m/s 765 mmHg 85%
    18:00 +4°C° 0 mm 2 m/s 765 mmHg 87%
    19:00 +4°C° 0 mm 2 m/s 764 mmHg 90%
    20:00 +4°C° 0 mm 2 m/s 764 mmHg 91%
    21:00 +3°C° 0 mm 2 m/s 764 mmHg 93%
    22:00 +3°C° 0 mm 2 m/s 764 mmHg 94%
    23:00 +3°C° 0 mm 2 m/s 764 mmHg 95%
    Mostrar mais